Total_Precipitation_Accumulation
0.00 0.00 0.00 0.00 0.00 0.00 0.00 0.00 0.00 0.01 0.03 0.50 1.10 0.12 0.07 0.04 0.04 0.08 0.11 0.14 0.18 0.08 0.07 0.08 0.13 0.07 0.09 0.14 0.08 0.09 0.02 0.01 0.01 0.03 0.25 0.49 0.12 0.00 0.04 0.02 0.00 0.00 0.06
0.00 0.00 0.00 0.00 0.00 0.00 0.00 0.00 0.00 0.02 0.05 0.06 0.36 0.17 0.11 0.06 0.07 0.11 0.19 0.06 0.13 0.10 0.08 0.10 0.07 0.02 0.07 0.08 0.08 0.10 0.12 0.06 0.03 0.08 0.05 0.08 0.08 0.06 0.06 0.07 0.01 0.00 0.00
0.00 0.00 0.00 0.00 0.00 0.00 0.00 0.00 0.00 0.03 0.06 0.04 0.09 0.08 0.08 0.07 0.14 0.13 0.22 0.11 0.09 0.10 0.05 0.06 0.06 0.05 0.05 0.05 0.04 0.04 0.03 0.02 0.02 0.03 0.02 0.01 0.01 0.01 0.08 0.08 0.08 0.01 0.00
0.00 0.00 0.00 0.00 0.00 0.00 0.00 0.00 0.01 0.05 0.09 0.04 0.05 0.05 0.07 0.09 0.06 0.07 0.09 0.16 0.04 0.02 0.04 0.02 0.02 0.04 0.05 0.09 0.06 0.09 0.08 0.07 0.07 0.07 0.01 0.00 0.00 0.01 0.01 0.03 0.04 0.02 0.00
0.03 0.02 0.01 0.00 0.00 0.00 0.00 0.00 0.00 0.03 0.03 0.03 0.03 0.08 0.02 0.07 0.01 0.03 0.07 0.10 0.15 0.07 0.06 0.11 0.01 0.01 0.02 0.03 0.02 0.12 0.12 0.11 0.04 0.04 0.02 0.00 0.00 0.02 0.04 0.00 0.00 0.00 0.00
0.06 0.05 0.11 0.17 0.13 0.10 0.06 0.03 0.02 0.00 0.03 0.04 0.01 0.01 0.02 0.00 0.00 0.00 0.01 0.01 0.06 0.14 0.09 0.07 0.04 0.07 0.03 0.00 0.00 0.02 0.07 0.11 0.10 0.07 0.06 0.06 0.08 0.05 0.06 0.05 0.04 0.06 0.02
0.05 0.05 0.06 0.17 0.20 0.17 0.14 0.08 0.04 0.02 0.00 0.02 0.02 0.01 0.01 0.00 0.00 0.00 0.04 0.05 0.07 0.05 0.07 0.05 0.02 0.00 0.00 0.02 0.05 0.02 0.00 0.00 0.02 0.07 0.05 0.04 0.10 0.15 0.12 0.12 0.20 0.15 0.08
0.02 0.04 0.12 0.20 0.19 0.22 0.24 0.10 0.05 0.05 0.01 0.00 0.00 0.01 0.01 0.00 0.00 0.00 0.02 0.02 0.03 0.02 0.06 0.11 0.09 0.02 0.04 0.27 0.25 0.22 0.14 0.16 0.09 0.08 0.09 0.09 0.16 0.17 0.24 0.23 0.34 0.18 0.11
0.07 0.13 0.15 0.18 0.24 0.19 0.17 0.17 0.11 0.07 0.02 0.00 0.00 0.00 0.01 0.00 0.01 0.01 0.01 0.01 0.05 0.07 0.05 0.05 0.15 0.12 0.16 0.19 0.15 0.08 0.15 0.13 0.24 0.20 0.16 0.15 0.18 0.16 0.15 0.19 0.19 0.21 0.12
0.05 0.21 0.52 0.46 0.24 0.15 0.08 0.14 0.23 0.19 0.08 0.08 0.01 0.00 0.01 0.00 0.04 0.06 0.02 0.04 0.01 0.03 0.09 0.09 0.24 0.20 0.26 0.22 0.17 0.12 0.07 0.10 0.39 0.31 0.16 0.09 0.06 0.02 0.06 0.08 0.14 0.21 0.22
0.10 0.16 0.33 0.57 0.82 0.72 0.37 0.30 0.35 0.33 0.30 0.18 0.10 0.05 0.01 0.01 0.09 0.20 0.05 0.05 0.03 0.06 0.06 0.10 0.10 0.23 0.09 0.09 0.12 0.14 0.07 0.11 0.18 0.20 0.22 0.20 0.22 0.11 0.03 0.01 0.03 0.06 0.10
0.03 0.04 0.10 0.33 0.61 0.63 0.74 0.82 0.89 0.85 0.50 0.36 0.20 0.14 0.09 0.06 0.12 0.07 0.12 0.05 0.04 0.04 0.03 0.05 0.09 0.18 0.14 0.05 0.03 0.03 0.02 0.02 0.03 0.07 0.10 0.11 0.13 0.07 0.04 0.02 0.00 0.00 0.00
0.01 0.03 0.07 0.09 0.24 0.50 0.58 0.75 1.18 1.41 1.07 0.50 0.27 0.14 0.12 0.10 0.07 0.07 0.09 0.08 0.04 0.03 0.08 0.07 0.09 0.13 0.05 0.03 0.02 0.02 0.02 0.00 0.01 0.03 0.06 0.05 0.07 0.06 0.03 0.01 0.00 0.00 0.00
0.01 0.02 0.05 0.04 0.06 0.17 0.27 0.46 0.52 0.66 0.77 0.78 0.56 0.36 0.26 0.20 0.10 0.13 0.16 0.12 0.08 0.03 0.03 0.04 0.03 0.01 0.00 0.00 0.01 0.00 0.00 0.00 0.01 0.03 0.04 0.05 0.05 0.03 0.00 0.00 0.00 0.00 0.00
0.01 0.01 0.01 0.01 0.01 0.03 0.05 0.17 0.64 0.86 0.80 0.69 0.50 0.30 0.25 0.19 0.08 0.11 0.15 0.08 0.01 0.03 0.05 0.02 0.00 0.00 0.00 0.00 0.00 0.00 0.00 0.00 0.00 0.02 0.04 0.06 0.04 0.02 0.00 0.00 0.00 0.00 0.00
0.01 0.00 0.00 0.00 0.00 0.00 0.01 0.12 0.20 0.62 1.40 1.25 1.28 0.82 0.71 0.85 0.67 0.39 0.34 0.27 0.15 0.12 0.03 0.01 0.00 0.00 0.00 0.00 0.00 0.00 0.00 0.00 0.00 0.01 0.01 0.02 0.00 0.00 0.00 0.00 0.00 0.00 0.00
0.06 0.02 0.01 0.00 0.00 0.00 0.01 0.06 0.07 0.20 0.31 0.36 0.85 1.12 0.76 0.62 1.19 1.15 0.94 0.57 0.37 0.18 0.03 0.00 0.00 0.00 0.00 0.00 0.00 0.00 0.00 0.00 0.00 0.00 0.00 0.00 0.00 0.00 0.00 0.00 0.00 0.00 0.00
0.08 0.04 0.01 0.00 0.00 0.00 0.01 0.07 0.11 0.10 0.17 0.13 0.24 0.44 0.59 0.77 0.94 0.83 0.80 0.46 0.58 0.44 0.05 0.03 0.00 0.00 0.00 0.00 0.00 0.00 0.00 0.00 0.00 0.00 0.00 0.00 0.00 0.00 0.00 0.00 0.00 0.00 0.00
0.10 0.05 0.02 0.02 0.01 0.02 0.05 0.10 0.12 0.10 0.10 0.11 0.16 0.19 0.07 0.14 0.38 0.35 0.26 0.06 0.05 0.05 0.00 0.01 0.00 0.00 0.00 0.00 0.00 0.00 0.00 0.00 0.00 0.00 0.00 0.00 0.00 0.00 0.00 0.00 0.00 0.00 0.00
0.06 0.07 0.04 0.02 0.03 0.08 0.11 0.12 0.15 0.13 0.10 0.11 0.15 0.05 0.09 0.09 0.05 0.02 0.08 0.09 0.00 0.00 0.00 0.00 0.00 0.00 0.00 0.00 0.00 0.00 0.00 0.00 0.00 0.00 0.00 0.00 0.00 0.00 0.00 0.00 0.00 0.00 0.00
0.11 0.05 0.12 0.06 0.08 0.10 0.25 0.18 0.16 0.14 0.11 0.10 0.16 0.04 0.06 0.08 0.05 0.04 0.04 0.04 0.00 0.00 0.00 0.00 0.00 0.00 0.00 0.00 0.00 0.00 0.00 0.00 0.00 0.00 0.00 0.00 0.00 0.00 0.00 0.00 0.00 0.00 0.00
0.43 0.30 0.25 0.36 0.40 0.14 0.19 0.42 0.36 0.16 0.14 0.08 0.06 0.05 0.06 0.06 0.02 0.01 0.01 0.01 0.00 0.00 0.00 0.00 0.00 0.00 0.00 0.00 0.00 0.00 0.00 0.00 0.00 0.00 0.00 0.00 0.00 0.00 0.00 0.00 0.00 0.00 0.00
0.70 0.55 0.45 0.40 0.29 0.34 0.29 0.31 0.47 0.51 0.27 0.17 0.15 0.07 0.04 0.04 0.02 0.02 0.01 0.00 0.00 0.00 0.00 0.00 0.00 0.00 0.00 0.00 0.00 0.00 0.00 0.00 0.00 0.00 0.00 0.00 0.00 0.00 0.00 0.00 0.00 0.00 0.00
0.25 0.40 0.48 0.51 0.48 0.43 0.28 0.35 0.37 0.29 0.30 0.23 0.14 0.07 0.03 0.03 0.03 0.01 0.01 0.01 0.01 0.00 0.00 0.00 0.00 0.00 0.00 0.00 0.00 0.00 0.00 0.00 0.00 0.00 0.00 0.00 0.00 0.00 0.00 0.00 0.00 0.00 0.00
0.23 0.32 0.51 0.59 0.67 0.58 0.48 0.46 0.52 0.44 0.22 0.22 0.23 0.17 0.05 0.01 0.02 0.03 0.02 0.02 0.01 0.02 0.00 0.00 0.00 0.00 0.00 0.00 0.00 0.00 0.00 0.00 0.00 0.00 0.00 0.00 0.00 0.00 0.00 0.00 0.00 0.00 0.00
0.13 0.18 0.31 0.60 0.63 0.59 0.64 0.69 0.53 0.54 0.49 0.39 0.34 0.33 0.26 0.14 0.07 0.04 0.03 0.04 0.01 0.00 0.00 0.00 0.00 0.00 0.00 0.00 0.00 0.00 0.01 0.00 0.00 0.01 0.01 0.01 0.02 0.02 0.01 0.00 0.00 0.00 0.00